"Pseudo-MPEC" for P11JDJb

Created 2023 Oct 5 20:22:15 UT using Find_Orb

Click here for an explanation of pseudo-MPECs

 
 Astrometry: 
     P11JDJb* C2023 09 15U[h2[,.d:e'DV,d^$(kdTcMZ[[m]h8$\[j=gRAstrometry[(=bLF51
     P11JDJb  C2023 09 15MH7redacted;1LsVkNsbTyUkAW^ym?i0,Ak4^click-;2U,whereF51
     P11JDJb  C2023 09 15[%.-'Do6wJ'for?[eN*b8kexplanation))%Bjt.y_[,mamu`ce]F51

Station data:
(F51) Pan-STARRS 1, Haleakala  (N20.707234 W156.255910)  US/Hawaii.
   Observers J. Bulger, T. Lowe, A. Schultz, M. Willman. Measurers K.
   Chambers, S. Chastel, T. de Boer, L. Denneau, J. Fairlamb, H. Flewelling,
   M. Huber, C.-C. Lin, E. Magnier, Y. Ramanjooloo, R. Wainscoat, R. Weryk.
   1.8-m Ritchey-Chrétien + CCD.

Orbital elements:  P11JDJb
   Perihelion 2023 Oct 17.74770 +/- 68.4 TT = 17:56:41 (JD 2460235.24770)
Epoch 2023 Sep 15.0 TT = JDT 2460202.5   Ju: 0.3771              AutoNEOCP
M 358.32425994 +/- 12               (J2000 ecliptic)
n   0.05117122 +/- 0.123            Peri.  305.15685 +/- 70
a   7.18542024 +/- 11.6             Node    54.60337 +/- 37
e   0.6850727 +/- 0.231             Incl.   19.98664 +/- 7
P  19.26                   H 18.91  G  0.15   U 11.3  SR
q 2.26288468 +/- 1.08    Q 12.1079558 +/- 345
From 3 observations 2023 Sept. 15 (26.6 min); mean residual 0".06
Residuals in arcseconds: 
230915 F51  .03+  .06-    230915 F51  .06-  .11+    230915 F51  .03+  .06-    

Ephemerides (geocentric):
Date (UTC) HH   RA             Dec           delta  r     elong  mag " sig PA
---- --------  ------------   ------------  ------ ------ -----  --- --------
2023 10 05 20  23 53 21.596   -32 01 05.88  1.3972 2.2657 141.3 22.3  32d  66
2023 10 05 21  23 53 20.154   -32 00 40.89  1.3973 2.2657 141.3 22.3  32d  66
2023 10 05 22  23 53 18.714   -32 00 15.85  1.3975 2.2657 141.3 22.3  32d  66
2023 10 05 23  23 53 17.276   -31 59 50.78  1.3976 2.2656 141.2 22.3  32d  66
2023 10 06 00  23 53 15.840   -31 59 25.67  1.3978 2.2656 141.2 22.3  32d  66
2023 10 06 01  23 53 14.405   -31 59 00.53  1.3979 2.2656 141.2 22.3  32d  66
2023 10 06 02  23 53 12.972   -31 58 35.34  1.3981 2.2656 141.2 22.3  32d  66
2023 10 06 03  23 53 11.540   -31 58 10.13  1.3982 2.2656 141.2 22.3  32d  66
2023 10 06 04  23 53 10.111   -31 57 44.87  1.3984 2.2655 141.1 22.3  32d  66
2023 10 06 05  23 53 08.683   -31 57 19.59  1.3985 2.2655 141.1 22.3  32d  66
2023 10 06 06  23 53 07.257   -31 56 54.26  1.3987 2.2655 141.1 22.3  32d  66
2023 10 06 07  23 53 05.832   -31 56 28.90  1.3988 2.2655 141.1 22.3  32d  66
2023 10 06 08  23 53 04.410   -31 56 03.50  1.3990 2.2655 141.0 22.3  32d  66
2023 10 06 09  23 53 02.988   -31 55 38.07  1.3991 2.2654 141.0 22.3  32d  66
2023 10 06 10  23 53 01.569   -31 55 12.60  1.3992 2.2654 141.0 22.3  32d  66
2023 10 06 11  23 53 00.152   -31 54 47.09  1.3994 2.2654 141.0 22.3  32d  66
2023 10 06 12  23 52 58.736   -31 54 21.55  1.3995 2.2654 141.0 22.3  32d  66
2023 10 06 13  23 52 57.322   -31 53 55.97  1.3997 2.2654 140.9 22.3  32d  66
2023 10 06 14  23 52 55.910   -31 53 30.36  1.3998 2.2654 140.9 22.3  32d  66
2023 10 06 15  23 52 54.499   -31 53 04.71  1.4000 2.2653 140.9 22.3  32d  66
2023 10 06 16  23 52 53.090   -31 52 39.02  1.4001 2.2653 140.9 22.3  32d  66
2023 10 06 17  23 52 51.683   -31 52 13.30  1.4003 2.2653 140.8 22.3  32d  66
2023 10 06 18  23 52 50.278   -31 51 47.54  1.4004 2.2653 140.8 22.3  32d  66
2023 10 06 19  23 52 48.874   -31 51 21.75  1.4006 2.2653 140.8 22.3  32d  66
2023 10 06 20  23 52 47.473   -31 50 55.92  1.4007 2.2652 140.8 22.3  32d  66
2023 10 06 21  23 52 46.073   -31 50 30.06  1.4009 2.2652 140.8 22.3  32d  66
2023 10 06 22  23 52 44.675   -31 50 04.16  1.4011 2.2652 140.7 22.3  32d  66
2023 10 06 23  23 52 43.278   -31 49 38.22  1.4012 2.2652 140.7 22.3  32d  66
2023 10 07 00  23 52 41.884   -31 49 12.25  1.4014 2.2652 140.7 22.3  32d  66
2023 10 07 01  23 52 40.491   -31 48 46.24  1.4015 2.2652 140.7 22.3  32d  66
2023 10 07 02  23 52 39.100   -31 48 20.20  1.4017 2.2651 140.6 22.3  32d  66
2023 10 07 03  23 52 37.711   -31 47 54.12  1.4018 2.2651 140.6 22.3  32d  66
2023 10 07 04  23 52 36.323   -31 47 28.00  1.4020 2.2651 140.6 22.3  32d  66
2023 10 07 05  23 52 34.938   -31 47 01.85  1.4021 2.2651 140.6 22.3  32d  66
2023 10 07 06  23 52 33.554   -31 46 35.66  1.4023 2.2651 140.6 22.3  32d  66
2023 10 07 07  23 52 32.172   -31 46 09.44  1.4024 2.2651 140.5 22.3  32d  66
2023 10 07 08  23 52 30.792   -31 45 43.18  1.4026 2.2650 140.5 22.3  32d  66
2023 10 07 09  23 52 29.414   -31 45 16.89  1.4028 2.2650 140.5 22.3  32d  66
2023 10 07 10  23 52 28.038   -31 44 50.56  1.4029 2.2650 140.5 22.3  32d  66
2023 10 07 11  23 52 26.663   -31 44 24.20  1.4031 2.2650 140.4 22.3  32d  66
2023 10 07 12  23 52 25.290   -31 43 57.80  1.4032 2.2650 140.4 22.3  32d  66
2023 10 07 13  23 52 23.919   -31 43 31.36  1.4034 2.2649 140.4 22.3  32d  66
2023 10 07 14  23 52 22.550   -31 43 04.89  1.4035 2.2649 140.4 22.3  32d  66
2023 10 07 15  23 52 21.183   -31 42 38.39  1.4037 2.2649 140.3 22.3  32d  66
2023 10 07 16  23 52 19.818   -31 42 11.85  1.4039 2.2649 140.3 22.3  32d  66
2023 10 07 17  23 52 18.454   -31 41 45.27  1.4040 2.2649 140.3 22.3  32d  66
2023 10 07 18  23 52 17.093   -31 41 18.66  1.4042 2.2649 140.3 22.3  32d  66
2023 10 07 19  23 52 15.733   -31 40 52.01  1.4043 2.2648 140.3 22.3  32d  66